Home > Weather > Las Vegas > Past weeks

Flag for U.S.A. Weather for the Past 2 Weeks in Las Vegas, Nevada, U.S.A.

Now
52 °F

Sunny.


Feels Like: 52 °F
Forecast: 46 / 70 °F
Wind: 3 mph from Southwest

Location: McCarran International Airport

Current Time: Feb 9, 2016 at 8:27:25 AM

Latest Report: Feb 9, 2016 at 7:56 AM


Visibility: 10 mi

Pressure: 30.34 "Hg (28.13 "Hg at 629m altitude)

Humidity: 38%

Dew point: 27 °F

Location of Las VegasLocation

Historic Weather in Las Vegas — Graph

°F

Las Vegas Temperature Yesterday

Maximum temperature yesterday: 72 °F (at 2:56 PM)
Minimum temperature yesterday: 49 °F (at 6:56 AM)
Average temperature yesterday: 60 °F

High & Low Weather Summary for the Past Weeks

 TemperatureHumidityPressure
High74 °F (Jan 30, 2:56 PM)93% (Jan 31, 7:56 PM)30.51 "Hg (Jan 31, 7:56 PM)
Low30 °F (Feb 3, 6:56 AM)14% (Feb 7, 1:56 PM)29.32 "Hg (Jan 31, 4:56 PM)
Average50 °F36%30.16 "Hg
* Reported Jan 25 6:56 AM — Feb 9 6:56 AM, Las Vegas, Weather by CustomWeather, © 2016

Note: Actual official high and low records may vary slightly from our data, if they occured in-between our weather recording intervals... More about our weather records

Advertising

Las Vegas Weather History for the Previous 24 Hours

 ConditionsComfort  
Time TempWeatherWind HumidityBarometerVisibility
6:56 AM
Tue, Feb 9
47 °FSunny.No wind46%30.33 "Hg10 mi
5:56 AM47 °FClear.No wind46%30.32 "Hg10 mi
4:56 AM48 °FClear.3 mph44%30.31 "Hg10 mi
3:56 AM48 °FClear.3 mph44%30.31 "Hg10 mi
2:56 AM48 °FClear.5 mph46%30.31 "Hg10 mi
1:56 AM50 °FClear.5 mph41%30.31 "Hg10 mi
12:56 AM53 °FClear.3 mph38%30.31 "Hg10 mi
11:56 PM
Mon, Feb 8
56 °FClear.3 mph34%30.30 "Hg10 mi
10:56 PM59 °FClear.6 mph29%30.30 "Hg10 mi
9:56 PM60 °FClear.No wind30%30.30 "Hg10 mi
8:56 PM62 °FClear.No wind26%30.29 "Hg10 mi
7:56 PM62 °FClear.3 mph26%30.29 "Hg10 mi
6:56 PM64 °FClear.7 mph24%30.28 "Hg10 mi
5:56 PM68 °FClear.No wind21%30.27 "Hg10 mi
4:56 PM71 °FSunny.6 mph19%30.26 "Hg10 mi
3:56 PM72 °FSunny.8 mph17%30.27 "Hg10 mi
2:56 PM72 °FSunny.10 mph16%30.27 "Hg10 mi
1:56 PM70 °FSunny.7 mph17%30.28 "Hg10 mi
12:56 PM67 °FSunny.7 mph19%30.31 "Hg10 mi
11:56 AM65 °FSunny.10 mph20%30.35 "Hg10 mi
10:56 AM63 °FSunny.No wind22%30.39 "Hg10 mi
9:56 AM59 °FSunny.6 mph26%30.41 "Hg10 mi
8:56 AM57 °FSunny.10 mph28%30.42 "Hg10 mi
Weather by CustomWeather, © 2016

See weather overviewHow to use our weather pages